IBE1554 LPPR-LEMD

Flight info

Callsign IBE1554
Flight time N/A
Altitude 28000
Route BELDU UL155 ADORO L155 ZMR
Aircraft A20N/M-SDE2E3FGHIRWXY/LB1

Departure

Time N/A
Airport Francisco de Sá Carneiro Airport (LPPR)

Arrival

Time 2026-05-03 20:43
Airport Adolfo Suárez Madrid–Barajas Airport (LEMD)
Time Latitude Longitude Altitude Speed Heading
2026-05-03 20:15 41.49797 -6.08305 27974 ft 475 kts 88°
2026-05-03 20:15 41.50127 -6.03917 27969 ft 475 kts 88°
2026-05-03 20:15 41.50214 -5.99591 27973 ft 469 kts 99°
2026-05-03 20:15 41.49621 -5.95340 27972 ft 461 kts 113°
2026-05-03 20:16 41.48377 -5.91448 27976 ft 451 kts 126°
2026-05-03 20:16 41.46592 -5.88061 27977 ft 442 kts 136°
2026-05-03 20:16 41.44623 -5.84974 27975 ft 442 kts 136°
2026-05-03 20:16 41.42630 -5.81839 27977 ft 442 kts 136°
2026-05-03 20:17 41.40642 -5.78696 27977 ft 442 kts 136°
2026-05-03 20:17 41.38658 -5.75557 27979 ft 442 kts 136°
2026-05-03 20:17 41.36672 -5.72413 27975 ft 442 kts 136°
2026-05-03 20:17 41.34688 -5.69274 27977 ft 442 kts 136°
2026-05-03 20:18 41.32720 -5.66165 27981 ft 443 kts 136°
2026-05-03 20:18 41.30721 -5.63011 27977 ft 443 kts 136°
2026-05-03 20:18 41.28751 -5.59907 27977 ft 443 kts 136°
2026-05-03 20:18 41.26764 -5.56778 27980 ft 443 kts 136°
2026-05-03 20:19 41.24768 -5.53639 27869 ft 440 kts 136°
2026-05-03 20:19 41.22796 -5.50539 27449 ft 438 kts 136°
2026-05-03 20:19 41.20853 -5.47488 26928 ft 435 kts 136°
2026-05-03 20:19 41.18900 -5.44426 26369 ft 431 kts 136°
2026-05-03 20:20 41.16973 -5.41407 25811 ft 428 kts 136°
2026-05-03 20:20 41.15076 -5.38440 25267 ft 424 kts 136°
2026-05-03 20:20 41.13170 -5.35462 24736 ft 421 kts 136°
2026-05-03 20:20 41.11279 -5.32510 24193 ft 417 kts 135°
2026-05-03 20:21 41.09406 -5.29590 23675 ft 414 kts 135°
2026-05-03 20:21 41.07541 -5.26684 23081 ft 411 kts 135°
2026-05-03 20:21 41.05697 -5.23814 22501 ft 407 kts 135°
2026-05-03 20:21 41.03889 -5.21002 21941 ft 403 kts 135°
2026-05-03 20:22 41.02078 -5.18188 21382 ft 399 kts 135°
2026-05-03 20:22 41.00277 -5.15391 20832 ft 396 kts 135°
2026-05-03 20:22 40.98532 -5.12564 20274 ft 396 kts 128°
2026-05-03 20:22 40.97064 -5.09533 19758 ft 394 kts 127°
2026-05-03 20:23 40.95608 -5.06490 19247 ft 390 kts 126°
2026-05-03 20:23 40.94156 -5.03449 18744 ft 387 kts 126°
2026-05-03 20:23 40.92720 -5.00444 18238 ft 384 kts 126°
2026-05-03 20:23 40.91306 -4.97488 17668 ft 381 kts 126°
2026-05-03 20:24 40.89893 -4.94538 17129 ft 378 kts 126°
2026-05-03 20:24 40.88485 -4.91603 16599 ft 375 kts 126°
2026-05-03 20:24 40.87112 -4.88743 16092 ft 372 kts 126°
2026-05-03 20:24 40.85729 -4.85867 15583 ft 369 kts 126°
2026-05-03 20:25 40.84355 -4.83012 15154 ft 364 kts 126°
2026-05-03 20:25 40.82994 -4.80187 15012 ft 364 kts 126°
2026-05-03 20:25 40.81639 -4.77381 14984 ft 367 kts 126°
2026-05-03 20:25 40.80267 -4.74540 14985 ft 366 kts 126°
2026-05-03 20:26 40.78892 -4.71693 14984 ft 366 kts 127°
2026-05-03 20:26 40.77514 -4.68842 14983 ft 367 kts 127°
2026-05-03 20:26 40.76157 -4.66036 14981 ft 366 kts 127°
2026-05-03 20:26 40.74782 -4.63196 14980 ft 366 kts 127°
2026-05-03 20:27 40.73407 -4.60359 14979 ft 367 kts 127°
2026-05-03 20:27 40.72044 -4.57550 14980 ft 366 kts 127°
2026-05-03 20:27 40.70670 -4.54720 14977 ft 366 kts 127°
2026-05-03 20:27 40.69288 -4.51878 14979 ft 367 kts 127°
2026-05-03 20:28 40.67910 -4.49046 14979 ft 366 kts 127°
2026-05-03 20:28 40.66549 -4.46250 14979 ft 366 kts 127°
2026-05-03 20:28 40.65173 -4.43426 14976 ft 366 kts 127°
2026-05-03 20:28 40.63790 -4.40592 14974 ft 366 kts 127°
2026-05-03 20:29 40.62431 -4.37809 14979 ft 366 kts 127°
2026-05-03 20:29 40.61050 -4.34983 14943 ft 365 kts 127°
2026-05-03 20:29 40.59750 -4.32116 14700 ft 364 kts 123°
2026-05-03 20:29 40.58527 -4.29235 14276 ft 362 kts 123°
2026-05-03 20:30 40.57307 -4.26341 13805 ft 360 kts 123°
2026-05-03 20:30 40.56096 -4.23467 13302 ft 357 kts 123°
2026-05-03 20:30 40.54886 -4.20603 12775 ft 354 kts 123°
2026-05-03 20:30 40.53705 -4.17815 12267 ft 352 kts 122°
2026-05-03 20:31 40.52510 -4.15000 11774 ft 350 kts 122°
2026-05-03 20:31 40.51328 -4.12218 11291 ft 347 kts 122°
2026-05-03 20:31 40.50163 -4.09478 10831 ft 345 kts 122°
2026-05-03 20:31 40.49048 -4.06858 10397 ft 342 kts 122°
2026-05-03 20:32 40.47902 -4.04163 10253 ft 329 kts 122°
2026-05-03 20:32 40.46806 -4.01586 10139 ft 316 kts 122°
2026-05-03 20:32 40.45768 -3.99147 10019 ft 303 kts 122°
2026-05-03 20:32 40.44754 -3.96770 9797 ft 295 kts 122°
2026-05-03 20:33 40.43748 -3.94423 9374 ft 294 kts 123°
2026-05-03 20:33 40.42746 -3.92084 8966 ft 292 kts 122°
2026-05-03 20:33 40.41750 -3.89760 8553 ft 292 kts 122°
2026-05-03 20:33 40.40765 -3.87464 8164 ft 290 kts 122°
2026-05-03 20:34 40.39777 -3.85158 7774 ft 289 kts 122°
2026-05-03 20:34 40.38812 -3.82910 7390 ft 289 kts 122°
2026-05-03 20:34 40.37822 -3.80603 6979 ft 289 kts 122°
2026-05-03 20:34 40.36838 -3.78312 6588 ft 288 kts 122°
2026-05-03 20:35 40.35867 -3.76051 6218 ft 287 kts 123°
2026-05-03 20:35 40.34899 -3.73798 6033 ft 284 kts 123°
2026-05-03 20:35 40.33910 -3.71505 5988 ft 288 kts 123°
2026-05-03 20:35 40.32936 -3.69246 5983 ft 287 kts 123°
2026-05-03 20:36 40.31951 -3.66961 5994 ft 287 kts 123°
2026-05-03 20:36 40.30961 -3.64669 5993 ft 288 kts 123°
2026-05-03 20:36 40.30003 -3.62391 5993 ft 289 kts 117°
2026-05-03 20:36 40.29590 -3.59816 5991 ft 289 kts 89°
2026-05-03 20:37 40.29870 -3.57265 5989 ft 275 kts 80°
2026-05-03 20:37 40.30207 -3.54892 5993 ft 259 kts 80°
2026-05-03 20:37 40.30524 -3.52638 5985 ft 243 kts 81°
2026-05-03 20:37 40.30825 -3.50545 5987 ft 225 kts 80°
2026-05-03 20:38 40.31109 -3.48599 6006 ft 219 kts 80°
2026-05-03 20:38 40.31396 -3.46619 5996 ft 219 kts 80°
2026-05-03 20:38 40.31680 -3.44665 5999 ft 220 kts 80°
2026-05-03 20:38 40.32080 -3.42720 5992 ft 221 kts 61°
2026-05-03 20:39 40.33157 -3.41338 5666 ft 218 kts 19°
2026-05-03 20:39 40.34577 -3.41228 5208 ft 204 kts 334°
2026-05-03 20:39 40.35599 -3.42335 4879 ft 186 kts 301°
2026-05-03 20:39 40.36297 -3.43686 4595 ft 170 kts 298°
2026-05-03 20:40 40.36715 -3.44503 4463 ft 156 kts 298°
2026-05-03 20:40 40.37301 -3.45610 4249 ft 139 kts 299°
2026-05-03 20:40 40.37881 -3.46586 4073 ft 137 kts 305°
2026-05-03 20:40 40.38561 -3.47470 3896 ft 141 kts 312°
2026-05-03 20:41 40.39318 -3.48294 3710 ft 141 kts 315°
2026-05-03 20:41 40.40086 -3.49072 3535 ft 141 kts 316°
2026-05-03 20:41 40.40845 -3.49841 3343 ft 138 kts 316°
2026-05-03 20:41 40.41607 -3.50619 3158 ft 142 kts 317°
2026-05-03 20:42 40.42397 -3.51418 2947 ft 141 kts 319°
2026-05-03 20:42 40.43160 -3.52195 2760 ft 141 kts 319°
2026-05-03 20:42 40.43944 -3.52992 2574 ft 141 kts 319°
2026-05-03 20:42 40.44720 -3.53781 2382 ft 143 kts 320°
2026-05-03 20:43 40.45505 -3.54561 2172 ft 140 kts 319°
2026-05-03 20:43 40.46281 -3.55353 2014 ft 140 kts 320°
2026-05-03 20:43 40.47003 -3.56097 1979 ft 116 kts 320°
2026-05-03 20:43 40.47551 -3.56648 1994 ft 49 kts 322°
2026-05-03 20:44 40.47722 -3.56826 1995 ft 30 kts 321°
2026-05-03 20:44 40.47888 -3.56991 1997 ft 30 kts 323°
2026-05-03 20:44 40.48009 -3.57169 2005 ft 15 kts 266°
2026-05-03 20:44 40.47984 -3.57228 2003 ft 9 kts 237°
2026-05-03 20:45 40.47944 -3.57297 2004 ft 11 kts 232°
2026-05-03 20:45 40.47910 -3.57386 2002 ft 12 kts 279°
2026-05-03 20:45 40.47970 -3.57462 2002 ft 14 kts 321°
2026-05-03 20:45 40.48059 -3.57555 2000 ft 18 kts 321°
2026-05-03 20:46 40.48166 -3.57662 1996 ft 19 kts 324°
2026-05-03 20:46 40.48272 -3.57767 1993 ft 19 kts 323°
2026-05-03 20:46 40.48378 -3.57870 1991 ft 18 kts 326°
2026-05-03 20:46 40.48476 -3.57953 1996 ft 13 kts 328°
2026-05-03 20:47 40.48512 -3.58012 1999 ft 4 kts 282°
2026-05-03 20:47 40.48513 -3.58034 2001 ft 1 kts 269°
2026-05-03 20:47 40.48513 -3.58040 2002 ft 1 kts 269°